Location: *
(49.4547°N, 7.9131°E)
Time: 20:12:34
(UTC+00:00)

CZ-2C R/B - Pass Details

Date: 22 September 2019
Orbit: 639 x 705 km, 98.4° (Epoch: 15 October)

Event Time Altitude Azimuth Distance (km) Brightness Sun altitude
Rises 18:57:42 0° 15° (NNE) 2,975 7.1 -15.3°
Reaches altitude 10° 18:59:56 10° 18° (NNE) 2,054 6.2 -15.6°
Maximum altitude 19:04:24 74° 104° (ESE) 672 3.5 -16.3°
Drops below altitude 10° 19:08:48 10° 189° (S) 2,027 6.1 -17.0°
Sets 19:11:00 0° 191° (SSW) 2,933 6.9 -17.3°
